1484629200.2,25558,4.5,73062.8,-17.71,-45.73,-45.95,0,*67
1484629201.48,25559,4.5,73062.8,-17.71,-45.67,-46.07,0,*6B
1484629202.75,25560,4.5,73066.8,-17.71,-46.07,-46.35,0,*65
1484629204.05,25561,4.5,73062.5,-17.71,-46.15,-46.41,0,*64
1484629205.33,25562,4.5,73064.5,-17.71,-46.07,-46.35,0,*67
1484629206.6,25563,4.5,73062.5,-17.71,-46.15,-46.35,0,*65
1484629207.88,25564,4.5,73062.3,-17.71,-46.15,-46.55,0,*64
1484629209.17,25565,4.5,73066.3,-17.71,-46.41,-46.61,0,*63
1484629210.46,25566,4.5,73064.0,-17.71,-46.41,-46.61,0,*60
1484629211.69,25567,4.5,73060.8,-17.73,-46.35,-46.55,0,*67
1484629212.93,25568,4.5,73068.0,-17.73,-46.07,-46.35,0,*6F
1484629214.18,25569,4.5,73066.5,-17.71,-45.95,-46.35,0,*64
1484629215.46,25570,4.5,73062.3,-17.71,-46.15,-46.35,0,*67
1484629216.73,25571,4.5,73062.0,-17.71,-45.87,-46.15,0,*6C
1484629218.01,25572,4.5,73058.5,-17.71,-46.35,-46.41,0,*64
1484629219.26,25573,4.5,73060.5,-17.71,-46.21,-46.35,0,*63
1484629220.48,25574,4.5,73058.5,-17.73,-46.21,-46.55,0,*60
1484629221.73,25575,4.5,73058.5,-17.71,-46.35,-46.55,0,*66
1484629223.0,25576,4.5,73058.0,-17.73,-45.73,-46.15,0,*62
1484629224.25,25577,4.5,73060.3,-17.71,-46.35,-46.75,0,*66
1484629225.52,25578,4.5,73066.5,-17.71,-45.67,-46.07,0,*68
1484629226.78,25579,4.5,73062.3,-17.67,-45.61,-46.01,0,*6E
1484629228.03,25580,4.5,73066.8,-17.71,-45.95,-46.35,0,*63
1484629229.33,25581,4.5,73062.3,-17.67,-46.27,-46.49,0,*64
1484629230.58,25582,4.5,73060.8,-17.67,-46.01,-46.35,0,*68
1484629231.86,25583,4.5,73066.3,-17.67,-46.01,-46.27,0,*6A
1484629233.14,25584,4.5,73068.5,-17.67,-45.67,-46.07,0,*6C
1484629234.41,25585,4.5,73060.8,-17.67,-45.81,-46.01,0,*63
1484629235.63,25586,4.5,73068.0,-17.65,-45.61,-45.87,0,*61
1484629236.91,25587,4.5,73066.5,-17.67,-46.01,-46.27,0,*6E
1484629238.13,25588,4.5,73062.5,-17.65,-45.67,-45.87,0,*69
1484629239.4,25589,4.5,73064.0,-17.67,-45.61,-45.81,0,*6A
1484629240.64,25590,4.5,73064.5,-17.65,-45.87,-46.27,0,*67
1484629241.92,25591,4.5,73062.5,-17.67,-46.01,-46.27,0,*69
1484629243.18,25592,4.5,73066.0,-17.65,-45.27,-45.61,0,*6E
1484629244.39,25593,4.5,73060.3,-17.65,-45.41,-45.67,0,*69
1484629245.64,25594,4.5,73064.3,-17.65,-45.87,-46.07,0,*61
1484629246.89,25595,4.5,73068.3,-17.65,-46.07,-46.55,0,*6C
1484629248.14,25596,4.5,73062.0,-17.65,-46.01,-46.27,0,*6C
1484629249.42,25597,4.5,73068.3,-17.67,-45.61,-46.15,0,*6B
1484629250.66,25598,4.5,73066.5,-17.65,-45.87,-46.27,0,*6F
1484629251.91,25599,4.5,73068.3,-17.65,-45.67,-46.15,0,*61
1484629253.18,25600,4.5,73068.0,-17.65,-45.81,-46.15,0,*6A
1484629254.43,25601,4.5,73062.5,-17.65,-46.01,-46.15,0,*60
1484629255.71,25602,4.5,73064.0,-17.67,-45.87,-46.15,0,*6C
1484629256.98,25603,4.5,73064.0,-17.65,-45.81,-46.15,0,*69
1484629258.25,25604,4.5,73064.0,-17.65,-45.81,-46.15,0,*6E
1484629259.47,25605,4.5,73064.5,-17.65,-45.61,-45.87,0,*69
1484629260.71,25606,4.5,73062.8,-17.65,-45.87,-46.27,0,*6B
1484629261.98,25607,4.5,73066.3,-17.63,-46.01,-46.27,0,*61
1484629263.26,25608,4.5,73066.8,-17.63,-45.95,-46.27,0,*60
1484629264.52,25609,4.5,73060.0,-17.63,-46.21,-46.41,0,*6D
1484629265.79,25610,4.5,73068.0,-17.63,-46.21,-46.41,0,*65
1484629267.04,25611,4.5,73066.5,-17.63,-45.95,-46.21,0,*6E
1484629268.28,25612,4.5,73068.5,-17.63,-46.01,-46.21,0,*63
1484629269.55,25613,4.5,73066.3,-17.63,-45.81,-46.01,0,*6B
1484629270.8,25614,4.5,73068.3,-17.63,-45.95,-46.21,0,*6B
1484629272.07,25615,4.5,73062.5,-17.63,-45.95,-46.27,0,*6C
1484629273.33,25616,4.5,73068.5,-17.63,-46.21,-46.41,0,*63
1484629274.6,25617,4.5,73066.8,-17.63,-45.73,-46.01,0,*62
1484629275.87,25618,4.5,73070.8,-17.63,-45.41,-45.73,0,*6A
1484629277.14,25619,4.5,73070.3,-17.63,-46.01,-46.27,0,*6E
1484629278.38,25620,4.5,73070.8,-17.63,-45.95,-46.21,0,*6C
1484629279.66,25621,4.5,73064.0,-17.63,-45.53,-45.81,0,*6E
1484629280.93,25622,4.5,73066.3,-17.63,-45.73,-46.01,0,*64
1484629282.2,25623,4.5,73066.8,-17.63,-45.95,-46.07,0,*6B
1484629283.49,25624,4.5,73070.3,-17.63,-46.07,-46.41,0,*66
1484629284.79,25625,4.5,73064.5,-17.63,-46.27,-46.49,0,*6D
1484629286.09,25626,4.5,73064.5,-17.63,-46.41,-46.49,0,*6E
1484629287.36,25627,4.5,73070.3,-17.63,-46.21,-46.69,0,*6B
1484629288.66,25628,4.5,73066.8,-17.63,-46.27,-46.49,0,*60
1484629289.95,25629,4.5,73066.5,-17.63,-46.41,-46.69,0,*63
1484629291.25,25630,4.5,73068.3,-17.63,-46.27,-46.41,0,*61
1484629292.55,25631,4.5,73064.5,-17.63,-46.27,-46.49,0,*68
1484629293.82,25632,4.5,73064.3,-17.63,-46.21,-46.27,0,*65
1484629295.12,25633,4.5,73066.8,-17.63,-46.07,-46.49,0,*68
1484629296.42,25634,4.5,73066.5,-17.63,-46.27,-46.49,0,*6D
1484629297.69,25635,4.5,73066.0,-17.63,-46.21,-46.49,0,*6A
1484629298.99,25636,4.5,73070.0,-17.63,-46.27,-46.61,0,*65
1484629300.28,25637,4.5,73066.0,-17.63,-46.27,-46.61,0,*64
1484629301.55,25638,4.5,73064.0,-17.63,-46.01,-46.27,0,*6D
1484629302.85,25639,4.5,73068.5,-17.63,-46.27,-46.61,0,*6A
1484629304.12,25640,4.5,73066.0,-17.63,-45.95,-46.27,0,*6C
1484629305.38,25641,4.5,73068.0,-17.63,-46.21,-46.61,0,*63
1484629306.66,25642,4.5,73068.0,-17.63,-46.21,-46.49,0,*6A
1484629307.93,25643,4.5,73064.8,-17.63,-46.01,-46.41,0,*61
1484629309.22,25644,4.5,73068.0,-17.63,-46.41,-46.69,0,*68
1484629310.46,25645,4.5,73070.0,-17.65,-46.35,-46.69,0,*6C
1484629311.73,25646,4.5,73070.0,-17.63,-46.41,-46.83,0,*6E
1484629312.98,25647,4.5,73066.3,-17.65,-46.49,-46.75,0,*68
1484629314.26,25648,4.5,73062.3,-17.65,-46.27,-46.69,0,*62
1484629315.51,25649,4.5,73068.8,-17.65,-46.15,-46.55,0,*6D
1484629316.78,25650,4.5,73066.8,-17.67,-46.35,-46.69,0,*6A
1484629318.03,25651,4.5,73064.8,-17.65,-46.27,-46.55,0,*65
1484629319.31,25652,4.5,73066.5,-17.65,-46.15,-46.49,0,*6A
1484629320.56,25653,4.5,73064.0,-17.65,-46.35,-46.69,0,*6B
1484629321.86,25654,4.5,73062.3,-17.63,-46.27,-46.49,0,*6B
1484629323.11,25655,4.5,73064.0,-17.65,-46.15,-46.55,0,*60
1484629324.39,25656,4.5,73066.5,-17.65,-46.27,-46.69,0,*6D
1484629325.61,25657,4.5,73064.3,-17.65,-46.35,-46.75,0,*62
1484629326.86,25658,4.5,73066.0,-17.65,-46.55,-46.89,0,*68
1484629328.1,25659,4.5,73064.5,-17.65,-46.69,-46.97,0,*69
1484629329.35,25660,4.5,73066.0,-17.65,-46.55,-46.89,0,*63
1484629330.57,25661,4.5,73064.3,-17.65,-46.55,-46.75,0,*61
1484629331.84,25662,4.5,73064.5,-17.67,-46.55,-46.89,0,*63
1484629333.06,25663,4.5,73062.8,-17.65,-46.55,-46.75,0,*63
1484629334.36,25664,4.5,73062.0,-17.67,-46.49,-46.89,0,*68
1484629335.58,25665,4.5,73064.8,-17.65,-46.55,-46.97,0,*69
1484629336.83,25666,4.5,73066.0,-17.65,-46.49,-46.75,0,*6B
1484629338.13,25667,4.5,73062.0,-17.67,-46.49,-46.69,0,*65
1484629339.41,25668,4.5,73066.3,-17.65,-46.27,-46.69,0,*60
1484629340.68,25669,4.5,73062.0,-17.67,-46.49,-46.75,0,*66
1484629341.93,25670,4.5,73068.0,-17.65,-46.49,-46.75,0,*6C
1484629343.18,25671,4.5,73062.0,-17.65,-46.49,-46.75,0,*6D
1484629344.43,25672,4.5,73060.8,-17.67,-46.35,-46.55,0,*65
1484629345.68,25673,4.5,73066.5,-17.65,-46.49,-46.55,0,*6D
1484629346.98,25674,4.5,73060.3,-17.67,-46.49,-46.89,0,*69
1484629348.25,25675,4.5,73054.8,-17.67,-46.55,-46.89,0,*65
1484629349.51,25676,4.5,73062.0,-17.67,-46.35,-46.55,0,*61
1484629350.76,25677,4.5,73060.3,-17.67,-46.55,-46.75,0,*64
1484629352.01,25678,4.5,73060.3,-17.67,-46.35,-46.75,0,*6D
1484629353.31,25679,4.5,73056.0,-17.67,-46.49,-46.69,0,*6A
1484629354.58,25680,4.5,73060.5,-17.67,-46.49,-46.75,0,*61
1484629355.88,25681,4.5,73060.0,-17.67,-46.49,-46.89,0,*63
1484629357.13,25682,4.5,73058.5,-17.67,-46.35,-46.55,0,*6A
1484629358.41,25683,4.5,73060.3,-17.67,-46.69,-46.75,0,*60
1484629359.69,25684,4.5,73062.0,-17.67,-46.27,-46.55,0,*6F
1484629360.96,25685,4.5,73060.8,-17.67,-46.27,-46.75,0,*6C
1484629362.21,25686,4.5,73060.8,-17.67,-46.01,-46.35,0,*6F
1484629363.52,25687,4.5,73062.3,-17.67,-46.15,-46.49,0,*60
1484629364.8,25688,4.5,73060.0,-17.67,-46.49,-46.75,0,*69
1484629366.07,25689,4.5,73058.3,-17.71,-46.61,-46.97,0,*69
1484629367.33,25690,4.5,73060.8,-17.71,-46.41,-46.75,0,*6F
1484629368.6,25691,4.5,73060.5,-17.71,-46.41,-46.75,0,*6E
1484629369.88,25692,4.5,73062.8,-17.71,-46.41,-46.83,0,*64
1484629371.15,25693,4.5,73064.5,-17.71,-46.61,-46.83,0,*67
1484629372.4,25694,4.5,73066.0,-17.71,-46.55,-46.97,0,*62
1484629373.66,25695,4.5,73066.3,-17.71,-46.75,-47.03,0,*6D
1484629374.9,25696,4.5,73070.0,-17.73,-46.75,-47.03,0,*6C
1484629376.15,25697,4.5,73062.5,-17.71,-46.55,-46.83,0,*64
1484629377.38,25698,4.5,73068.3,-17.73,-46.35,-46.55,0,*64
1484629378.65,25699,4.5,73064.3,-17.71,-46.07,-46.21,0,*65
1484629379.9,25700,4.5,73070.8,-17.73,-46.35,-46.61,0,*63
1484629381.14,25701,4.5,73062.5,-17.73,-46.41,-46.55,0,*66
1484629382.42,25702,4.5,73060.5,-17.71,-46.35,-46.41,0,*61
1484629383.7,25703,4.5,73066.3,-17.71,-46.15,-46.35,0,*61
1484629384.96,25704,4.5,73060.0,-17.73,-46.41,-46.61,0,*64
1484629386.21,25705,4.5,73062.8,-17.71,-46.21,-46.55,0,*66
1484629387.45,25706,4.5,73064.8,-17.71,-45.67,-45.87,0,*68
1484629388.69,25707,4.5,73066.0,-17.71,-45.67,-45.95,0,*6A
1484629390.0,25708,4.5,73064.3,-17.71,-46.15,-46.41,0,*69
1484629391.25,25709,4.5,73062.3,-17.71,-46.55,-46.83,0,*62
1484629392.5,25710,4.5,73070.8,-17.71,-46.35,-46.55,0,*67
1484629393.75,25711,4.5,73068.8,-17.71,-46.21,-46.75,0,*61
1484629395.01,25712,4.5,73068.5,-17.71,-46.21,-46.61,0,*67
1484629396.27,25713,4.5,73068.5,-17.71,-46.35,-46.75,0,*66
1484629397.54,25714,4.5,73066.0,-17.71,-46.35,-46.61,0,*64
1484629398.81,25715,4.5,73066.5,-17.71,-46.41,-46.75,0,*63
1484629400.05,25716,4.5,73070.0,-17.73,-46.41,-46.97,0,*6E
1484629401.27,25717,4.5,73066.5,-17.73,-46.35,-46.55,0,*62
1484629402.54,25718,4.5,73068.3,-17.73,-46.41,-46.61,0,*69
1484629403.79,25719,4.5,73068.8,-17.71,-46.55,-46.83,0,*63
1484629405.03,25720,4.5,73066.3,-17.73,-46.41,-46.55,0,*65
1484629406.31,25721,4.5,73068.0,-17.73,-46.15,-46.41,0,*60
1484629407.58,25722,4.5,73068.8,-17.71,-46.35,-46.61,0,*61
1484629408.82,25723,4.5,73070.5,-17.73,-46.21,-46.61,0,*67
1484629410.09,25724,4.5,73068.0,-17.71,-46.41,-46.83,0,*68
1484629411.36,25725,4.5,73066.3,-17.71,-46.21,-46.61,0,*63
1484629412.58,25726,4.5,73066.3,-17.73,-46.35,-46.75,0,*62
1484629413.83,25727,4.5,73068.3,-17.73,-46.35,-46.61,0,*66
1484629415.11,25728,4.5,73066.0,-17.71,-46.35,-46.41,0,*69
1484629416.38,25729,4.5,73066.0,-17.71,-46.41,-46.75,0,*6C
1484629417.62,25730,4.5,73068.3,-17.71,-46.55,-46.97,0,*6D
1484629418.84,25731,4.5,73064.3,-17.73,-46.55,-46.97,0,*6E
1484629420.09,25732,4.5,73074.0,-17.73,-46.35,-46.61,0,*62
1484629421.33,25733,4.5,73068.5,-17.73,-46.41,-46.97,0,*69
1484629422.55,25734,4.5,73070.8,-17.73,-46.55,-46.97,0,*6B
1484629423.77,25735,4.5,73070.8,-17.73,-46.21,-46.55,0,*67
1484629424.99,25736,4.5,73068.3,-17.73,-46.21,-46.75,0,*66
1484629426.25,25737,4.5,73066.3,-17.75,-46.55,-46.83,0,*6B
1484629427.52,25738,4.5,73066.0,-17.75,-46.21,-46.41,0,*69
1484629428.8,25739,4.5,73068.5,-17.73,-46.15,-46.15,0,*68
1484629430.07,25740,4.5,73064.8,-17.71,-46.21,-46.61,0,*60
1484629431.3,25741,4.5,73066.3,-17.73,-46.55,-46.83,0,*6C
1484629432.54,25742,4.5,73064.3,-17.73,-46.21,-46.61,0,*60
1484629433.79,25743,4.5,73066.8,-17.73,-46.15,-46.35,0,*67
1484629435.01,25744,4.5,73070.5,-17.73,-46.21,-46.55,0,*61
1484629436.25,25745,4.5,73068.5,-17.73,-46.21,-46.61,0,*67
1484629437.47,25746,4.5,73064.8,-17.73,-46.21,-46.55,0,*63
1484629438.78,25747,4.5,73068.0,-17.75,-46.15,-46.41,0,*66
1484629440.06,25748,4.5,73068.3,-17.73,-46.15,-46.41,0,*6F
1484629441.28,25749,4.5,73066.8,-17.73,-45.95,-46.21,0,*63
1484629442.5,25750,4.5,73064.5,-17.73,-46.21,-46.55,0,*64
1484629443.74,25751,4.5,73070.3,-17.73,-46.35,-46.61,0,*67
1484629444.96,25752,4.5,73070.3,-17.73,-46.21,-46.55,0,*66
1484629446.27,25753,4.5,73070.0,-17.71,-46.15,-46.41,0,*67
1484629447.56,25754,4.5,73070.0,-17.75,-46.41,-46.61,0,*67
1484629448.83,25755,4.5,73066.8,-17.75,-46.41,-46.75,0,*63
1484629450.08,25756,4.5,73070.5,-17.75,-46.35,-46.55,0,*61
1484629451.34,25757,4.5,73068.8,-17.75,-46.21,-46.55,0,*65
1484629452.61,25758,4.5,73070.5,-17.75,-46.21,-46.61,0,*6D
1484629453.88,25759,4.5,73070.3,-17.77,-46.27,-46.61,0,*68
1484629455.18,25760,4.5,73070.5,-17.75,-46.07,-46.41,0,*60
1484629456.46,25761,4.5,73064.5,-17.75,-45.87,-46.15,0,*6B
1484629457.71,25762,4.5,73066.8,-17.75,-45.95,-46.21,0,*6C
1484629459.01,25763,4.5,73070.3,-17.75,-45.73,-46.15,0,*62
1484629460.3,25764,4.5,73066.5,-17.75,-45.73,-46.15,0,*65
1484629461.58,25765,4.5,73066.5,-17.75,-46.07,-46.21,0,*63
1484629462.86,25766,4.5,73070.3,-17.75,-46.07,-46.35,0,*65
1484629464.11,25767,4.5,73066.0,-17.73,-46.35,-46.61,0,*62
1484629465.33,25768,4.5,73068.5,-17.73,-46.35,-46.55,0,*6A
1484629466.55,25769,4.5,73062.8,-17.73,-46.21,-46.55,0,*6E
1484629467.83,25770,4.5,73068.5,-17.73,-46.15,-46.41,0,*64
1484629469.05,25771,4.5,73070.3,-17.73,-46.21,-46.55,0,*67
1484629470.31,25772,4.5,73068.5,-17.73,-46.41,-46.61,0,*65
1484629471.56,25773,4.5,73066.8,-17.73,-46.07,-46.21,0,*62
1484629472.82,25774,4.5,73064.3,-17.75,-46.35,-46.55,0,*61
1484629474.09,25775,4.5,73064.0,-17.75,-45.87,-46.15,0,*6E
1484629475.37,25776,4.5,73066.0,-17.75,-46.07,-46.35,0,*64
1484629476.65,25777,4.5,73070.0,-17.75,-46.35,-46.61,0,*65
1484629477.92,25778,4.5,73070.8,-17.75,-46.21,-46.61,0,*6F
1484629479.22,25779,4.5,73064.3,-17.75,-46.15,-46.41,0,*6B
1484629480.5,25780,4.5,73066.5,-17.75,-46.35,-46.61,0,*6D
1484629481.75,25781,4.5,73070.0,-17.75,-46.55,-46.75,0,*6F
1484629483.03,25782,4.5,73064.3,-17.75,-46.41,-46.83,0,*60
1484629484.3,25783,4.5,73064.3,-17.75,-46.35,-46.61,0,*6E
1484629485.58,25784,4.5,73068.8,-17.75,-46.41,-46.83,0,*66
1484629486.85,25785,4.5,73066.0,-17.75,-46.41,-46.55,0,*6C
1484629488.16,25786,4.5,73064.3,-17.75,-46.15,-46.41,0,*6B
1484629489.43,25787,4.5,73066.0,-17.75,-46.41,-46.83,0,*65
1484629490.66,25788,4.5,73066.8,-17.77,-46.35,-46.55,0,*60
1484629491.91,25789,4.5,73064.8,-17.75,-45.95,-46.21,0,*69
1484629493.16,25790,4.5,73072.8,-17.75,-46.35,-46.55,0,*6B
1484629494.44,25791,4.5,73068.0,-17.75,-46.35,-46.61,0,*6D
1484629495.7,25792,4.5,73068.8,-17.75,-46.55,-46.83,0,*64
1484629496.95,25793,4.5,73070.5,-17.75,-46.35,-46.75,0,*6A
1484629498.25,25794,4.5,73068.0,-17.75,-46.07,-46.61,0,*69
1484629499.52,25795,4.5,73070.8,-17.75,-46.41,-46.75,0,*6F
1484629500.8,25796,4.5,73066.3,-17.75,-46.41,-46.83,0,*65
1484629502.05,25797,4.5,73064.8,-17.75,-46.55,-46.75,0,*68
1484629503.32,25798,4.5,73062.0,-17.77,-46.61,-46.89,0,*61
1484629504.57,25799,4.5,73066.8,-17.77,-46.49,-46.83,0,*60
1484629505.83,25800,4.5,73060.8,-17.77,-46.49,-46.83,0,*6F
1484629507.09,25801,4.5,73064.8,-17.77,-46.69,-46.89,0,*66
1484629508.34,25802,4.5,73066.8,-17.77,-46.61,-46.83,0,*67
1484629509.61,25803,4.5,73070.5,-17.77,-46.61,-46.89,0,*6C
1484629510.86,25804,4.5,73064.8,-17.77,-46.83,-47.03,0,*64
1484629512.11,25805,4.5,73066.8,-17.77,-46.49,-46.83,0,*6A
1484629513.4,25806,4.5,73066.8,-17.79,-46.61,-47.03,0,*64
1484629514.68,25807,4.5,73068.3,-17.79,-46.49,-46.83,0,*66
1484629515.92,25808,4.5,73068.8,-17.83,-46.21,-46.69,0,*66
1484629517.16,25809,4.5,73064.5,-17.83,-46.55,-46.89,0,*6A
1484629518.44,25810,4.5,73064.8,-17.79,-46.49,-46.83,0,*60
1484629519.66,25811,4.5,73060.8,-17.83,-46.55,-46.75,0,*60
1484629520.95,25812,4.5,73066.5,-17.79,-46.69,-46.89,0,*6A
1484629522.19,25813,4.5,73064.5,-17.83,-46.69,-46.97,0,*61
1484629523.48,25814,4.5,73068.8,-17.79,-46.41,-46.49,0,*6A
1484629524.73,25815,4.5,73064.8,-17.83,-46.55,-46.89,0,*67
1484629525.97,25816,4.5,73068.5,-17.83,-46.55,-46.69,0,*6A
1484629527.26,25817,4.5,73066.5,-17.79,-46.49,-46.69,0,*63
1484629528.54,25818,4.5,73066.8,-17.79,-46.21,-46.49,0,*60
1484629529.82,25819,4.5,73068.3,-17.79,-46.27,-46.83,0,*61
1484629531.09,25820,4.5,73070.8,-17.83,-46.27,-46.69,0,*6A
1484629532.33,25821,4.5,73068.0,-17.83,-46.55,-46.89,0,*60
1484629533.57,25822,4.5,73068.3,-17.83,-46.35,-46.69,0,*6B
1484629534.82,25823,4.5,73068.5,-17.83,-46.27,-46.55,0,*66
1484629536.07,25824,4.5,73068.0,-17.83,-46.35,-46.69,0,*6D
1484629537.34,25825,4.5,73068.5,-17.83,-46.27,-46.69,0,*6F
1484629538.58,25826,4.5,73062.8,-17.83,-46.35,-46.69,0,*6F
1484629539.83,25827,4.5,73062.5,-17.83,-46.35,-46.89,0,*60
1484629541.1,25828,4.5,73066.3,-17.83,-46.07,-46.49,0,*62
1484629542.35,25829,4.5,73066.8,-17.83,-46.35,-46.49,0,*62
1484629543.62,25830,4.5,73072.8,-17.83,-46.07,-46.49,0,*6B
1484629544.84,25831,4.5,73068.8,-17.83,-46.21,-46.35,0,*65
1484629546.09,25832,4.5,73064.5,-17.83,-46.27,-46.55,0,*66
1484629547.36,25833,4.5,73068.8,-17.83,-46.27,-46.49,0,*6A
1484629548.58,25834,4.5,73064.3,-17.83,-46.35,-46.55,0,*63
1484629549.87,25835,4.5,73064.5,-17.85,-46.15,-46.41,0,*63
1484629551.15,25836,4.5,73068.0,-17.79,-46.01,-46.27,0,*66
1484629552.42,25837,4.5,73066.0,-17.79,-45.95,-46.27,0,*69
1484629553.64,25838,4.5,73066.8,-17.83,-46.01,-46.35,0,*6E
1484629554.89,25839,4.5,73064.3,-17.83,-46.07,-46.35,0,*69
1484629556.16,25840,4.5,73064.0,-17.79,-45.73,-46.01,0,*65
1484629557.42,25841,4.5,73060.0,-17.79,-45.73,-45.95,0,*6A
1484629558.67,25842,4.5,73060.0,-17.83,-46.01,-46.27,0,*60
1484629559.93,25843,4.5,73060.0,-17.79,-45.81,-46.21,0,*69
1484629561.17,25844,4.5,73060.5,-17.79,-45.95,-46.21,0,*6B
1484629562.45,25845,4.5,73062.3,-17.79,-46.01,-46.27,0,*62
1484629563.72,25846,4.5,73060.5,-17.79,-45.95,-46.41,0,*6F
1484629564.99,25847,4.5,73064.5,-17.77,-46.15,-46.41,0,*6B
1484629566.26,25848,4.5,73066.5,-17.77,-46.27,-46.61,0,*67
1484629567.54,25849,4.5,73062.5,-17.79,-46.21,-46.49,0,*64
1484629568.78,25850,4.5,73062.3,-17.77,-46.01,-46.41,0,*68
1484629570.03,25851,4.5,73062.5,-17.77,-46.21,-46.49,0,*63
1484629571.25,25852,4.5,73064.5,-17.83,-46.01,-46.35,0,*62
1484629572.52,25853,4.5,73064.3,-17.79,-46.01,-46.41,0,*65
1484629573.8,25854,4.5,73064.0,-17.79,-46.01,-46.27,0,*62
1484629575.1,25855,4.5,73062.3,-17.79,-46.15,-46.27,0,*66
1484629576.37,25856,4.5,73064.5,-17.79,-46.21,-46.41,0,*62
1484629577.64,25857,4.5,73060.0,-17.79,-46.21,-46.27,0,*63
1484629578.93,25858,4.5,73064.3,-17.79,-46.41,-46.61,0,*68
1484629580.15,25859,4.5,73064.3,-17.83,-46.21,-46.35,0,*6B
1484629581.43,25860,4.5,73066.8,-17.79,-46.41,-46.61,0,*63
1484629582.7,25861,4.5,73064.8,-17.79,-46.21,-46.41,0,*66
1484629584.0,25862,4.5,73068.3,-17.79,-46.41,-46.49,0,*6B
1484629585.3,25863,4.5,73068.0,-17.79,-46.15,-46.49,0,*6B
1484629586.55,25864,4.5,73064.8,-17.83,-46.49,-46.75,0,*6F
1484629587.81,25865,4.5,73068.3,-17.79,-46.21,-46.41,0,*62
1484629589.09,25866,4.5,73066.8,-17.79,-46.21,-46.49,0,*69
1484629590.39,25867,4.5,73070.5,-17.79,-46.27,-46.49,0,*6E
1484629591.64,25868,4.5,73070.0,-17.83,-46.21,-46.49,0,*62
1484629592.85,25869,4.5,73068.8,-17.83,-46.21,-46.55,0,*6E
1484629594.12,25870,4.5,73072.3,-17.79,-46.21,-46.49,0,*6E
1484629595.42,25871,4.5,73068.0,-17.79,-46.27,-46.41,0,*61
1484629596.67,25872,4.5,73070.8,-17.79,-46.01,-46.21,0,*60
1484629597.92,25873,4.5,73064.5,-17.79,-46.01,-46.21,0,*61
1484629599.19,25874,4.5,73064.8,-17.79,-45.95,-46.27,0,*6E
1484629600.46,25875,4.5,73062.8,-17.79,-45.73,-46.01,0,*63
1484629601.73,25876,4.5,73060.8,-17.79,-46.21,-46.49,0,*68
1484629602.97,25877,4.5,73062.0,-17.77,-45.73,-45.95,0,*61
1484629604.24,25878,4.5,73058.3,-17.79,-45.41,-45.73,0,*69
1484629605.48,25879,4.5,73058.8,-17.77,-45.73,-46.01,0,*61
1484629606.7,25880,4.5,73058.8,-17.77,-45.41,-45.53,0,*62
1484629607.91,25881,4.5,73058.5,-17.77,-45.33,-45.41,0,*65
1484629609.22,25882,4.5,73062.3,-17.75,-44.93,-45.27,0,*6F
1484629610.46,25883,4.44,73060.5,-17.77,-45.73,-46.21,0,*66
1484629611.74,25884,4.5,73064.5,-17.75,-45.95,-46.15,0,*6C
1484629613.04,25885,4.5,73068.5,-17.75,-46.15,-46.41,0,*67
1484629614.29,25886,4.5,73066.0,-17.73,-46.07,-46.35,0,*62
1484629615.57,25887,4.5,73062.8,-17.75,-45.67,-46.07,0,*61
1484629616.87,25888,4.5,73060.3,-17.75,-45.73,-46.15,0,*68
1484629618.09,25889,4.5,73062.8,-17.77,-45.95,-46.21,0,*64
1484629619.37,25890,4.5,73064.5,-17.75,-46.07,-46.35,0,*63
1484629620.62,25891,4.5,73064.0,-17.77,-46.01,-46.27,0,*65
1484629621.92,25892,4.5,73070.0,-17.75,-46.07,-46.15,0,*63
1484629623.17,25893,4.5,73070.3,-17.75,-46.21,-46.55,0,*62
1484629624.44,25894,4.5,73070.3,-17.77,-46.41,-46.69,0,*6E
1484629625.71,25895,4.5,73068.8,-17.75,-46.21,-46.61,0,*63
1484629626.96,25896,4.5,73070.8,-17.75,-46.35,-46.75,0,*60
1484629628.24,25897,4.5,73068.8,-17.77,-46.27,-46.61,0,*65
1484629629.53,25898,4.5,73068.8,-17.75,-46.41,-46.61,0,*68
1484629630.78,25899,4.5,73070.3,-17.77,-46.21,-46.49,0,*67
1484629632.05,25900,4.5,73066.3,-17.77,-46.27,-46.61,0,*6A
1484629633.32,25901,4.5,73066.0,-17.77,-46.15,-46.27,0,*68
1484629634.57,25902,4.5,73060.0,-17.77,-46.21,-46.49,0,*64
1484629635.85,25903,4.5,73060.0,-17.75,-46.07,-46.21,0,*6D
1484629637.12,25904,4.5,73060.5,-17.77,-45.81,-46.15,0,*62
1484629638.37,25905,4.5,73064.3,-17.77,-45.87,-46.15,0,*65
1484629639.61,25906,4.5,73064.3,-17.75,-45.87,-46.21,0,*63
1484629640.92,25907,4.5,73066.0,-17.75,-46.15,-46.41,0,*6C
1484629642.17,25908,4.5,73064.5,-17.77,-46.21,-46.49,0,*6E
1484629643.47,25909,4.5,73064.5,-17.75,-46.07,-46.27,0,*61
1484629644.69,25910,4.5,73064.5,-17.77,-45.95,-46.21,0,*65
1484629645.96,25911,4.5,73064.8,-17.77,-46.41,-46.69,0,*62
1484629647.22,25912,4.5,73064.5,-17.77,-46.41,-46.69,0,*61
1484629648.49,25913,4.5,73062.3,-17.77,-46.61,-46.89,0,*6C
1484629649.76,25914,4.5,73062.5,-17.77,-46.41,-46.49,0,*65
1484629651.04,25915,4.5,73070.3,-17.77,-46.27,-46.49,0,*64
1484629652.31,25916,4.5,73068.0,-17.77,-46.27,-46.61,0,*6D
1484629653.58,25917,4.5,73072.0,-17.77,-46.41,-46.69,0,*64
1484629654.84,25918,4.5,73072.8,-17.77,-46.41,-46.69,0,*6B
1484629656.07,25919,4.5,73076.0,-17.77,-46.01,-46.21,0,*62
1484629657.35,25920,4.5,73070.8,-17.77,-46.27,-46.49,0,*62
1484629658.65,25921,4.5,73072.0,-17.79,-46.15,-46.27,0,*64
1484629659.91,25922,4.5,73074.8,-17.79,-46.21,-46.61,0,*62
1484629661.18,25923,4.5,73072.0,-17.79,-46.21,-46.61,0,*63
1484629662.48,25924,4.5,73068.3,-17.79,-46.27,-46.49,0,*68
1484629663.74,25925,4.5,73072.3,-17.79,-46.21,-46.61,0,*65
1484629665.04,25926,4.5,73068.5,-17.79,-46.41,-46.49,0,*6A
1484629666.3,25927,4.5,73070.5,-17.79,-46.21,-46.61,0,*67
1484629667.58,25928,4.5,73076.0,-17.79,-46.21,-46.49,0,*62
1484629668.82,25929,4.5,73070.0,-17.83,-46.35,-46.69,0,*61
1484629670.12,25930,4.5,73072.3,-17.79,-46.27,-46.49,0,*6D
1484629671.43,25931,4.5,73074.3,-17.79,-46.15,-46.27,0,*65
1484629672.72,25932,4.5,73070.3,-17.79,-46.15,-46.61,0,*64
1484629673.94,25933,4.5,73072.0,-17.83,-46.55,-46.75,0,*61
1484629675.16,25934,4.5,73072.3,-17.83,-46.55,-46.75,0,*66
1484629676.45,25935,4.5,73074.3,-17.79,-46.61,-46.69,0,*68
1484629677.72,25936,4.5,73074.8,-17.79,-46.21,-46.49,0,*6D
1484629678.99,25937,4.5,73074.8,-17.79,-46.21,-46.61,0,*66
1484629680.28,25938,4.44,73068.5,-17.79,-46.27,-46.61,0,*6F
1484629681.55,25939,4.44,73068.5,-17.83,-46.49,-46.89,0,*65
1484629682.8,25940,4.5,73074.3,-17.83,-46.07,-46.35,0,*66
1484629684.02,25941,4.5,73072.8,-17.83,-46.21,-46.35,0,*63
1484629685.26,25942,4.5,73078.5,-17.83,-46.27,-46.55,0,*60
1484629686.49,25943,4.5,73074.8,-17.83,-46.35,-46.55,0,*62
1484629687.71,25944,4.5,73072.3,-17.83,-46.35,-46.55,0,*65
1484629688.95,25945,4.5,73074.5,-17.83,-45.87,-46.27,0,*6B
1484629690.16,25946,4.44,73070.5,-17.83,-45.87,-46.21,0,*6E
1484629691.38,25947,4.5,73072.5,-17.83,-45.67,-46.21,0,*61
1484629692.66,25948,4.5,73072.8,-17.83,-46.27,-46.49,0,*67
1484629693.93,25949,4.5,73074.0,-17.83,-46.07,-46.49,0,*64
1484629695.15,25950,4.5,73076.0,-17.83,-46.01,-46.35,0,*61
1484629696.42,25951,4.5,73072.3,-17.79,-46.01,-46.27,0,*66
1484629697.72,25952,4.5,73078.0,-17.79,-46.27,-46.61,0,*63
1484629698.97,25953,4.5,73072.3,-17.83,-46.27,-46.55,0,*60
1484629700.23,25954,4.5,73072.5,-17.79,-46.21,-46.41,0,*61
1484629701.51,25955,4.5,73068.0,-17.79,-46.01,-46.27,0,*62
1484629702.79,25956,4.5,73074.8,-17.83,-46.27,-46.49,0,*68
1484629704.03,25957,4.5,73076.0,-17.83,-46.21,-46.49,0,*6F
1484629705.27,25958,4.5,73074.0,-17.83,-45.81,-46.01,0,*65
1484629706.55,25959,4.5,73074.0,-17.83,-46.15,-46.27,0,*6E
1484629707.77,25960,4.5,73072.3,-17.83,-46.21,-46.35,0,*60
1484629709.01,25961,4.5,73068.5,-17.83,-46.07,-46.35,0,*65
1484629710.23,25962,4.5,73072.0,-17.83,-46.01,-46.35,0,*60
1484629711.52,25963,4.5,73070.3,-17.79,-46.41,-46.61,0,*61
1484629712.76,25964,4.5,73078.3,-17.83,-46.21,-46.49,0,*6F